Theta_e
326 322 317 315 317 312 310 303 298 295 292 290 287 288 292 295 295 299 299 300 301 305 305 311 310 311 310 308 308 309 312 307 305 299 296 306 322 330 332 334 337 338 340 342 343 343 344 346 347 345 343 342 341 340 340 339 340 340 340 340 341 342 342 344 345 345 344 343 343 344 344 343 344 346 346 347 347 346 345 344 343 344 344 343 342 340 338 340 340 340 340 341 341 341 341 341 340
322 319 315 315 314 310 306 299 292 287 286 286 288 288 291 293 298 296 298 299 301 308 310 316 317 317 318 317 316 314 310 315 315 312 317 323 329 330 334 336 338 339 341 342 343 343 343 344 346 345 343 343 341 340 340 340 341 341 339 338 338 339 341 344 343 342 342 342 343 343 342 347 347 346 347 347 346 346 345 345 344 343 343 343 342 341 340 338 338 339 339 340 341 340 341 340 339
321 316 315 311 309 307 303 299 295 285 286 286 284 288 295 296 296 296 297 302 305 311 314 315 315 315 314 314 310 309 304 317 319 318 318 327 326 328 335 337 339 341 341 342 341 341 340 342 345 345 343 343 341 340 339 338 341 340 340 341 340 339 340 341 341 341 343 344 343 343 341 342 344 346 347 347 346 346 345 344 345 344 343 343 342 342 341 339 338 339 339 340 341 340 340 340 339
316 317 315 307 306 302 297 292 288 286 287 282 286 293 295 295 296 298 299 305 309 312 309 308 312 315 312 309 312 316 313 316 320 319 321 326 323 333 337 339 341 342 341 340 339 339 339 342 343 344 343 341 340 339 340 337 338 339 338 340 341 340 341 340 340 343 342 341 342 341 342 344 346 346 346 346 346 345 344 343 342 341 341 341 341 341 341 340 339 339 340 340 340 340 339 340 338
315 318 312 305 304 302 296 291 287 285 287 286 287 291 294 296 300 299 303 303 303 303 305 307 312 317 317 314 315 309 309 318 320 321 320 323 333 337 338 340 341 340 339 339 339 338 339 342 343 343 343 342 340 340 339 339 339 338 339 340 341 341 340 338 339 341 342 342 342 344 345 346 346 346 346 346 344 343 343 341 341 341 340 341 340 340 340 340 338 339 340 339 340 340 339 339 338
312 312 314 311 305 305 297 293 291 288 290 290 292 295 296 299 301 300 303 304 305 304 305 307 312 312 314 317 317 312 317 313 320 321 322 322 334 338 339 339 340 339 338 337 337 337 338 341 342 342 343 342 341 340 339 339 338 337 338 340 340 339 339 338 340 341 343 342 344 346 346 346 346 345 346 344 343 342 341 339 339 339 340 340 339 339 339 338 339 339 339 339 339 339 338 338 337
315 306 306 305 304 301 295 288 287 287 290 294 295 297 300 300 301 301 302 303 304 308 307 312 315 314 312 315 317 321 322 324 323 323 324 328 335 337 339 339 339 337 336 336 336 336 336 341 343 344 344 343 340 339 339 339 339 338 338 336 337 338 338 338 338 341 341 342 345 346 346 345 345 345 344 343 342 342 341 341 341 340 340 340 339 339 339 339 339 338 338 338 338 338 338 337 337
314 307 304 298 296 297 292 290 290 287 293 295 297 300 300 301 300 301 300 301 302 306 311 313 312 309 309 317 309 319 323 324 325 325 330 334 335 337 338 338 337 336 336 334 335 334 342 339 342 343 343 343 342 341 340 339 338 338 337 336 336 339 338 337 338 339 340 341 341 345 345 345 344 344 344 343 343 343 341 341 339 339 340 340 338 338 337 338 338 338 338 338 338 337 337 337 337
309 306 303 298 295 293 290 293 292 292 291 296 300 301 307 302 301 300 300 299 301 302 306 307 307 305 307 313 311 316 321 324 325 328 332 333 333 335 337 337 336 335 334 334 333 333 335 339 341 342 342 343 344 342 340 339 339 337 336 339 339 340 339 339 339 339 340 341 341 344 344 344 344 344 343 343 342 340 340 340 340 340 340 338 338 338 337 337 337 337 337 337 336 336 337 336 336
307 305 298 297 295 295 290 290 290 293 292 296 300 302 303 302 300 300 299 301 303 301 304 306 306 305 310 310 312 318 319 324 324 326 331 333 333 334 335 335 335 333 331 330 331 333 332 343 338 340 341 343 344 344 342 340 339 337 337 340 340 341 342 341 340 340 341 341 341 342 343 343 343 343 342 342 341 340 340 339 340 339 339 337 337 337 336 335 336 336 336 336 336 336 336 336 336
303 301 302 297 290 290 291 292 289 290 295 293 298 297 302 301 300 298 299 300 301 302 306 310 312 311 312 312 310 317 323 323 323 322 328 330 332 333 333 334 333 332 331 329 331 332 333 335 340 338 340 340 342 343 342 341 339 338 338 339 342 341 341 341 341 341 341 341 342 342 342 343 343 342 341 341 341 340 339 339 339 339 338 338 338 338 336 336 335 335 335 335 335 335 335 335 335
301 299 297 289 290 291 290 292 292 290 292 294 299 302 298 301 298 299 300 300 301 302 304 309 310 312 309 307 309 317 323 321 322 323 324 327 331 333 334 333 333 332 330 330 330 330 331 332 332 339 336 336 338 340 340 340 341 340 341 341 342 341 341 341 341 341 341 341 342 342 342 342 341 341 341 341 341 340 340 339 339 339 338 337 337 336 336 335 334 334 334 334 334 334 334 334 334
300 300 294 293 292 293 292 291 291 293 289 292 297 301 297 298 299 299 299 300 299 301 303 303 316 312 306 304 310 319 321 322 322 323 323 327 331 333 332 333 333 331 331 329 331 328 327 328 329 331 333 334 334 335 336 337 340 342 342 342 342 342 342 341 341 340 340 340 342 342 342 342 341 341 341 341 341 340 339 339 338 337 337 337 336 336 336 335 334 334 333 333 334 333 333 333 333
301 300 299 297 293 292 292 293 289 292 290 292 294 297 298 298 298 300 301 300 300 299 302 305 317 314 311 313 315 314 321 323 324 325 324 327 331 332 332 332 331 330 330 331 330 329 329 331 333 330 329 331 331 332 332 335 338 341 341 341 342 342 341 341 341 342 342 341 341 341 342 342 341 341 341 341 340 339 338 337 338 337 337 336 336 336 336 335 334 333 333 333 333 333 333 333 333
309 304 299 296 293 291 293 292 291 289 290 292 298 297 298 301 297 299 302 299 300 299 307 309 314 306 304 312 311 317 322 325 325 324 325 328 329 330 331 331 330 329 330 330 331 330 331 332 333 330 326 327 328 328 327 330 333 337 339 339 340 340 341 340 340 339 338 339 338 338 338 337 337 337 338 338 337 336 335 334 336 337 336 336 335 336 335 334 334 333 332 333 333 333 333 333 333
308 302 297 297 292 292 293 295 290 289 291 293 298 296 299 300 297 301 301 301 301 305 305 311 310 303 305 311 311 322 325 325 325 324 325 325 325 327 329 329 330 331 331 331 331 331 331 332 332 331 325 325 326 327 327 329 331 331 334 336 336 337 338 337 335 334 332 332 332 332 330 329 330 330 330 331 332 336 334 330 333 336 336 335 335 335 335 333 333 333 333 332 333 333 332 331 331
309 306 300 291 292 292 294 295 292 291 291 293 295 298 300 298 300 300 301 303 305 305 310 312 309 315 313 314 314 324 326 325 323 323 323 323 324 324 326 327 328 329 331 331 331 331 331 332 332 330 325 325 326 327 329 328 330 329 330 330 332 334 334 333 332 327 325 324 325 324 325 324 324 326 327 327 326 326 325 327 331 335 335 335 334 334 334 333 333 332 332 332 332 332 328 328 325
307 303 297 295 293 293 296 296 294 296 295 296 296 297 298 297 300 303 305 306 303 305 308 308 312 313 315 316 319 326 326 323 322 321 321 320 322 322 323 324 325 326 328 330 331 331 331 332 332 331 328 325 325 328 328 328 327 329 327 326 329 330 329 328 326 326 328 323 322 323 323 324 323 321 324 329 322 324 325 325 329 334 335 334 335 334 334 333 332 332 331 331 332 328 320 311 313
299 294 299 301 298 301 301 299 297 296 296 296 297 295 299 299 300 301 301 301 305 305 307 306 310 312 316 318 323 325 324 322 321 321 319 319 320 321 322 322 323 325 325 328 330 331 331 331 333 332 330 325 325 326 329 328 327 326 325 326 328 326 328 326 324 324 322 322 321 321 321 321 320 321 323 324 323 320 324 324 328 331 333 332 334 333 333 332 332 331 331 332 331 324 314 311 312
298 297 295 300 303 304 302 297 296 298 297 297 297 297 298 300 300 300 301 300 301 301 303 305 308 307 313 316 322 323 323 321 320 320 319 319 320 320 320 320 321 322 323 326 328 331 331 329 332 333 331 326 326 326 327 328 327 326 325 325 326 325 325 324 322 322 321 321 321 321 321 320 320 321 327 327 325 324 324 322 325 327 329 328 330 330 331 330 331 330 328 327 320 317 315 314 313
299 296 295 299 301 302 305 297 295 294 296 297 296 295 298 298 298 300 297 301 299 299 302 307 308 310 314 318 321 322 322 321 320 319 319 319 319 320 321 321 321 320 321 322 322 327 329 330 331 332 332 327 326 325 327 328 327 326 324 324 324 323 323 322 322 322 321 321 320 321 320 318 319 320 322 323 322 323 322 322 323 325 326 326 325 324 322 320 319 317 316 317 313 314 313 312 311
299 298 299 300 300 302 304 298 296 294 294 296 293 298 298 298 299 297 302 299 298 302 304 307 309 315 317 318 320 321 321 320 320 319 318 319 318 319 320 319 317 319 319 321 322 324 327 328 329 331 333 330 326 325 326 327 327 326 324 324 323 323 323 322 322 322 321 321 320 320 319 319 319 320 319 320 321 321 321 322 322 323 323 324 323 324 321 320 318 316 315 314 314 312 313 313 311
299 299 298 298 297 301 300 298 297 294 295 294 295 298 297 298 298 296 302 300 299 299 301 307 310 319 320 321 321 320 320 320 320 319 319 318 319 319 320 320 319 319 320 322 322 323 325 327 328 329 331 332 327 326 325 326 328 326 325 324 323 323 322 322 322 321 321 321 320 319 320 320 319 319 319 318 319 319 320 320 321 322 322 322 322 322 320 318 317 317 316 315 311 309 311 311 310
302 300 299 301 299 299 298 298 296 294 296 295 296 296 297 294 298 295 298 300 299 296 295 304 314 318 320 320 320 320 320 320 320 321 321 320 320 320 321 320 321 319 318 320 322 323 323 326 328 327 329 332 330 326 325 325 325 325 325 324 324 323 323 323 323 323 322 321 320 321 321 321 321 320 319 317 317 316 319 319 320 320 321 320 322 321 320 318 317 317 316 313 313 312 313 313 313
301 300 299 299 300 299 297 295 294 294 295 294 294 295 296 295 295 295 296 301 301 296 298 310 318 318 319 320 319 320 320 320 320 321 321 322 322 321 320 321 320 318 318 319 321 322 323 326 328 327 327 330 332 329 325 325 325 324 324 323 324 323 323 323 323 323 322 321 321 321 320 320 319 320 319 318 316 317 317 317 318 319 318 319 321 320 319 318 316 315 315 314 312 314 312 314 312
301 302 300 301 300 299 298 296 294 294 296 294 296 294 293 293 295 295 296 297 298 300 304 315 317 317 318 319 320 320 320 320 320 320 321 322 321 320 320 320 321 319 319 320 321 322 323 325 327 327 326 328 331 330 327 324 325 324 324 323 324 322 323 323 322 323 323 322 321 320 321 321 320 320 320 318 317 317 316 316 316 316 317 316 318 319 318 315 315 313 313 314 314 314 313 314 311
302 301 302 302 302 301 296 298 295 294 296 294 296 293 295 295 296 295 297 297 299 304 307 313 316 317 318 318 319 320 320 320 320 322 320 320 320 321 321 321 320 321 321 319 320 322 322 323 326 327 326 325 329 330 329 326 325 325 324 324 323 322 323 323 322 323 323 323 323 321 321 321 321 320 320 319 318 317 317 316 316 316 315 316 317 318 316 316 315 316 316 315 314 314 314 313 313
302 303 301 301 301 296 295 294 294 294 297 293 296 295 295 294 295 297 300 297 301 303 306 312 314 316 317 318 319 320 320 321 321 319 320 319 321 321 322 322 321 321 321 320 320 322 321 323 324 326 326 325 327 329 328 327 325 325 324 324 324 323 322 322 322 322 322 323 322 322 322 321 320 321 321 320 319 319 317 317 316 316 317 317 317 317 316 315 316 316 314 314 313 312 314 313 313
302 302 299 300 300 300 296 295 294 294 296 294 296 295 294 294 296 299 300 295 299 302 306 311 313 314 316 318 318 319 320 320 320 320 321 322 323 323 322 324 323 322 323 322 321 321 321 322 324 325 325 324 326 328 329 328 327 326 325 324 324 323 322 322 322 322 322 323 322 322 322 322 321 321 321 320 319 319 319 318 317 316 317 317 317 317 316 316 315 315 315 313 311 310 312 314 312
301 301 299 299 299 297 301 294 293 294 296 293 298 291 294 297 300 298 300 296 296 299 303 308 313 314 315 316 317 318 319 318 319 321 322 323 323 323 323 324 324 323 323 322 321 320 322 323 324 324 324 323 324 328 328 328 327 327 326 325 324 324 322 322 322 322 322 322 322 322 322 322 321 322 321 320 320 319 319 318 318 318 318 317 317 317 317 316 316 314 316 311 314 313 313 314 312
302 298 299 294 292 292 295 296 293 294 295 293 300 292 296 300 301 302 298 297 297 297 300 305 310 312 314 315 316 317 318 320 320 321 322 323 323 324 324 324 324 324 323 321 321 321 321 322 324 324 322 323 323 326 327 327 327 327 325 325 324 324 323 322 322 321 321 322 322 322 322 322 321 322 321 321 320 319 319 319 319 320 319 318 317 317 318 317 316 316 314 314 314 312 313 314 314
298 298 293 292 295 294 294 297 295 295 295 293 298 291 296 299 301 302 301 296 297 298 297 300 305 308 311 313 315 316 318 319 320 321 322 323 323 324 324 324 325 324 323 323 322 322 321 321 322 323 322 322 322 324 326 327 326 326 325 323 323 323 322 322 322 321 321 321 321 322 321 322 321 322 321 321 321 320 320 319 320 320 319 318 317 317 317 317 316 316 315 315 314 314 313 314 312
297 300 290 293 291 295 296 298 293 298 294 295 298 294 291 296 297 298 296 295 295 297 297 296 299 304 307 310 313 315 316 317 318 319 321 322 323 324 324 324 325 325 324 323 322 321 321 321 321 322 322 322 322 323 324 325 325 324 323 322 323 322 322 322 322 321 321 321 321 321 322 321 321 322 322 321 322 321 320 320 320 320 320 319 318 317 316 317 317 316 315 314 315 316 314 313 313
296 297 293 292 295 293 293 296 297 293 295 293 293 293 296 296 296 296 296 295 293 295 297 296 296 298 302 306 309 312 314 316 316 318 320 321 323 324 325 323 325 325 324 324 323 322 322 321 321 321 323 323 323 322 322 324 324 324 323 322 320 322 321 322 322 321 321 321 321 321 321 322 321 322 322 322 322 322 321 321 321 320 319 319 319 317 317 317 316 316 316 315 315 315 314 313 314
295 295 295 292 293 294 296 296 298 293 293 293 292 292 295 297 299 300 297 293 294 295 296 297 297 297 298 300 304 307 309 312 315 317 319 321 322 323 324 324 324 325 325 324 324 323 323 322 321 320 321 322 323 323 322 322 322 322 321 321 320 321 321 321 321 320 321 321 321 321 321 322 321 322 322 322 321 321 321 321 321 320 319 319 318 318 317 316 315 315 316 316 314 315 317 315 315
299 298 297 294 294 293 295 298 298 295 292 292 291 293 294 295 297 299 299 295 294 295 294 295 295 296 297 298 299 302 305 308 313 315 316 319 321 322 323 324 325 325 325 325 323 323 323 322 321 320 320 322 323 323 322 321 320 319 319 317 318 319 320 320 320 321 321 321 321 321 321 322 322 321 322 322 322 321 321 321 321 320 319 319 318 317 317 317 316 315 315 316 316 313 312 313 310
301 299 298 298 296 294 296 298 298 296 293 292 293 294 294 295 297 299 299 296 295 295 295 294 295 296 296 296 297 300 301 304 308 311 313 315 318 321 323 323 324 324 324 324 323 323 323 323 321 319 320 321 321 321 321 320 319 318 318 319 319 320 320 320 320 321 321 322 321 321 321 322 322 322 321 322 322 320 321 321 321 320 319 318 318 319 319 318 318 317 317 314 315 314 313 311 310
300 298 297 297 296 297 297 299 299 295 295 293 293 292 293 295 297 298 298 295 296 297 297 298 297 296 296 296 297 297 300 302 302 303 305 309 314 317 321 322 321 321 323 324 323 323 323 323 322 321 320 320 321 322 322 321 321 321 320 320 320 321 320 319 320 321 322 322 321 321 321 322 322 322 321 322 322 322 321 321 320 320 319 318 319 320 319 316 317 316 314 313 311 314 314 313 312
300 298 296 295 295 295 298 296 294 295 295 295 292 291 294 295 297 298 298 297 298 299 299 300 300 299 298 296 297 298 297 298 300 303 304 305 310 314 318 321 322 323 323 323 325 324 323 323 323 323 321 320 321 322 322 321 322 321 321 320 321 319 319 321 321 321 320 321 322 322 321 322 322 322 322 321 322 322 322 321 321 321 320 319 318 318 318 317 317 317 316 316 314 308 311 310 312
299 297 295 295 294 296 292 297 292 295 295 290 289 290 295 296 296 297 299 299 299 300 300 300 301 301 300 299 299 298 298 298 298 300 301 304 307 311 315 319 321 322 322 323 324 324 324 323 324 323 322 321 321 321 320 322 322 322 321 320 319 321 319 318 318 318 319 320 321 322 322 322 322 322 322 322 321 323 322 322 322 320 321 319 319 319 318 318 318 317 317 316 316 314 309 312 311
300 300 298 294 294 297 297 295 290 293 294 290 290 292 295 295 295 297 300 298 299 301 300 300 301 300 302 302 300 299 300 299 300 300 300 302 304 307 312 317 320 321 322 323 323 324 325 324 324 324 324 322 321 320 320 321 319 317 317 315 314 314 315 314 315 318 319 320 320 321 322 322 322 322 322 322 321 322 322 322 322 321 320 320 319 319 319 319 319 319 318 317 316 316 314 310 308
299 301 300 297 296 296 295 290 292 291 291 292 293 286 292 292 296 298 302 293 295 297 298 300 302 302 300 300 301 301 300 301 301 302 302 302 303 306 309 314 317 320 322 323 324 325 325 325 324 324 325 324 322 321 320 320 319 319 317 317 316 316 316 316 316 318 319 319 320 322 319 321 321 321 322 321 321 320 322 322 321 321 320 319 318 319 319 319 318 318 318 318 317 316 317 311 309
297 299 303 300 297 296 293 289 293 286 287 291 293 291 290 289 290 292 294 294 297 296 296 298 299 300 300 301 302 302 302 302 301 301 302 300 301 304 306 311 315 318 321 323 324 324 324 325 324 324 325 324 324 322 320 319 319 319 319 319 319 318 317 318 320 320 319 320 320 320 321 319 321 321 321 321 321 320 320 321 321 321 320 319 318 318 318 318 318 318 318 318 318 317 315 315 314
296 302 303 301 296 293 292 291 294 287 289 290 288 290 288 291 296 294 292 291 294 294 296 297 298 299 299 300 302 303 304 303 303 303 303 303 302 303 305 308 313 317 320 322 323 324 324 324 324 324 325 323 325 324 321 320 320 320 319 319 319 319 319 319 319 320 318 316 319 320 319 319 319 321 321 321 321 321 319 320 320 320 320 319 317 317 318 318 317 317 317 318 318 318 317 316 316
298 302 304 301 299 295 294 292 289 289 290 289 285 287 288 288 291 287 290 294 296 297 299 299 298 298 300 301 302 302 302 303 304 304 304 303 303 303 304 306 310 315 318 320 322 323 324 324 324 324 324 324 324 324 322 321 320 321 320 320 319 319 320 320 315 315 318 317 318 318 319 319 319 319 321 321 321 321 319 320 320 320 320 319 316 317 317 317 317 317 316 316 317 318 318 318 318
298 301 301 299 298 295 296 289 290 288 288 288 287 288 288 290 292 289 289 290 294 298 300 301 301 300 299 299 300 301 302 302 303 303 304 305 304 303 304 305 307 312 317 319 321 322 323 323 323 322 323 324 324 324 323 322 321 320 320 320 319 320 319 318 314 316 316 316 318 318 318 319 319 319 320 321 321 321 321 320 320 321 320 320 317 318 318 318 319 319 320 320 320 320 320 319 319
302 303 298 294 292 290 288 288 288 288 286 288 291 289 291 287 295 294 291 292 298 299 296 296 296 298 299 300 300 301 301 301 301 301 302 303 303 302 300 302 306 309 313 316 319 320 321 322 322 321 323 324 323 323 323 323 322 321 321 321 320 320 320 318 317 317 317 315 318 318 318 319 319 320 320 321 322 322 322 322 321 322 322 322 321 322 322 321 321 321 321 321 321 321 321 321 319
301 293 292 295 290 291 288 286 287 286 286 289 291 288 289 286 289 294 298 296 295 299 299 299 297 298 300 302 301 301 300 300 300 300 300 300 300 298 297 300 303 307 310 313 316 317 318 320 320 320 321 322 322 323 322 323 323 322 322 322 322 322 321 320 319 319 319 318 318 318 316 317 318 320 322 324 324 325 325 325 324 324 323 324 324 324 324 324 324 324 323 322 322 322 322 321 321
298 296 297 292 286 287 284 286 283 284 286 285 283 287 285 288 292 289 291 295 296 296 297 299 298 298 299 299 298 299 298 296 297 298 299 299 300 300 298 299 300 304 309 312 314 315 317 318 319 319 320 321 322 322 322 322 322 323 323 323 323 323 322 322 321 320 320 319 318 317 316 318 320 321 323 324 325 326 326 326 326 325 325 325 326 326 326 327 326 326 325 324 323 323 322 322 321
296 296 294 290 283 283 284 285 284 283 284 284 285 286 287 292 292 299 300 300 299 299 298 298 297 298 297 297 296 295 294 294 296 298 298 299 299 299 300 300 300 303 307 311 313 314 316 317 318 319 320 320 321 320 321 321 322 323 323 323 323 323 322 322 322 321 320 319 319 318 318 318 319 321 322 323 325 326 326 327 327 327 327 327 326 326 327 327 326 326 326 325 324 324 324 323 323
297 301 298 293 291 285 283 284 283 285 283 283 284 288 284 286 289 291 295 299 298 296 296 295 296 297 297 295 293 292 292 293 294 295 297 298 299 299 300 300 300 301 304 309 311 313 315 316 317 317 318 319 319 320 320 320 322 322 322 323 323 323 323 322 322 322 320 318 317 317 318 318 319 319 320 322 321 323 324 325 326 327 327 327 327 326 326 326 326 325 325 324 324 324 323 322 323
298 296 296 292 291 286 284 278 281 276 278 277 279 287 287 291 291 293 294 291 292 293 292 291 293 293 291 293 294 295 296 296 295 293 295 296 297 296 297 297 298 298 301 306 309 312 313 315 316 317 318 318 319 318 320 320 321 322 322 322 322 321 320 321 320 318 318 318 317 317 318 318 319 319 319 318 320 321 323 323 324 325 327 327 327 326 326 326 325 325 324 324 323 323 323 322 321
294 295 291 295 292 286 279 278 277 278 276 280 279 282 287 288 296 300 300 297 296 294 292 290 291 291 289 292 294 294 295 295 295 294 294 295 292 293 295 296 297 297 298 302 306 310 312 313 314 315 316 316 317 317 320 320 320 320 320 321 321 320 320 319 320 318 316 315 316 317 318 318 318 318 317 316 318 319 322 322 323 325 326 326 326 326 326 326 325 324 323 323 323 323 321 321 321
296 290 295 294 296 291 286 280 270 270 277 280 279 285 285 282 288 288 296 298 300 300 299 296 291 288 289 292 293 294 295 296 294 291 292 292 292 293 294 295 296 297 298 299 302 306 311 313 314 314 314 315 316 316 317 319 319 319 319 319 319 320 320 319 318 317 315 315 315 316 315 316 316 316 317 317 317 318 319 316 323 324 325 325 325 326 325 325 325 324 324 323 323 323 322 321 320
299 297 300 295 287 288 287 285 277 275 276 276 274 280 279 286 290 285 287 291 295 297 297 292 290 288 289 290 292 292 292 292 292 292 291 292 293 294 294 295 295 295 295 297 299 301 303 303 307 311 313 314 315 316 316 316 317 318 319 318 318 318 318 318 317 316 315 315 316 316 315 316 314 314 313 315 315 316 317 319 321 323 324 324 325 325 324 324 324 323 323 323 324 323 322 320 319
294 297 296 295 294 290 288 288 284 284 277 271 280 276 283 286 289 292 292 289 291 294 291 291 294 294 293 291 292 293 293 294 293 292 292 292 293 293 294 295 295 295 294 295 295 296 301 304 304 306 307 306 306 309 310 312 313 314 315 313 314 316 316 317 317 316 315 316 316 315 315 313 314 312 314 314 315 314 314 315 317 319 321 322 323 323 324 323 323 323 322 321 322 321 320 319 315
290 294 291 291 292 291 292 288 286 284 282 278 278 278 284 284 289 293 296 296 294 293 293 294 292 291 292 292 293 293 294 295 293 292 292 292 293 292 292 291 291 290 290 291 293 295 298 299 301 303 305 306 306 307 307 310 309 311 310 312 312 312 313 314 314 314 315 315 314 312 314 315 310 313 312 312 313 313 313 314 316 317 319 320 320 321 321 321 320 320 318 316 313 315 315 311 311
295 295 293 294 292 288 287 285 284 278 282 276 274 282 288 281 289 295 295 298 299 300 297 293 291 291 291 292 292 292 293 293 293 292 292 293 292 292 291 288 288 289 289 291 293 292 292 295 299 300 299 302 303 303 306 307 307 309 309 310 310 309 311 310 310 310 311 312 312 312 311 308 309 311 309 311 310 311 310 312 314 315 315 316 317 319 318 319 318 318 318 317 314 313 312 311 309
Wind_Speed
5 5 2 1 3 3 1 6 1 3 3 0 0 1 2 0 1 1 2 1 1 3 2 1 3 3 2 3 7 4 2 6 5 7 3 1 0 5 4 7 6 7 8 6 6 6 6 8 11 13 13 13 13 12 11 11 11 10 9 9 9 9 10 10 13 13 12 13 12 11 11 11 12 12 12 14 14 16 16 15 16 15 15 15 15 15 15 15 15 15 15 15 15 15 15 16 16
3 4 3 1 1 1 1 1 3 3 6 2 2 1 2 1 1 3 3 2 2 2 1 7 7 9 11 12 7 2 1 0 2 1 1 0 3 2 5 9 8 11 9 7 7 5 4 7 11 12 14 14 13 12 12 12 11 11 10 9 9 9 11 12 12 12 11 12 12 11 11 13 12 12 13 14 14 15 15 15 15 15 14 14 14 14 14 14 14 14 14 14 15 15 15 16 15
2 4 2 4 3 4 2 4 2 1 4 1 2 4 1 2 5 5 3 4 5 6 3 6 6 3 2 2 1 1 1 0 1 2 1 1 8 4 6 7 8 10 10 6 6 4 4 7 11 13 14 14 14 13 12 10 12 11 11 12 11 9 9 10 11 11 11 11 11 11 10 11 13 13 13 13 13 15 16 16 15 14 14 14 13 13 13 13 13 13 13 13 14 15 15 16 16
1 4 1 2 2 4 0 3 4 6 3 4 0 2 2 5 5 5 3 3 6 6 2 1 3 2 2 4 1 1 1 0 1 4 3 6 3 6 6 8 8 8 7 6 5 5 5 8 11 13 13 14 13 12 13 11 11 11 9 11 11 10 9 9 11 11 11 11 10 10 11 11 12 13 14 14 15 15 15 15 14 13 13 13 12 12 13 13 12 13 13 13 13 14 15 15 15
2 2 3 3 2 2 1 1 3 3 1 5 4 3 3 4 6 4 3 2 4 3 1 2 3 3 0 4 1 0 2 0 2 4 2 1 3 7 7 8 9 8 7 6 6 5 6 11 11 11 14 14 13 12 12 12 12 11 11 10 11 11 10 10 10 11 11 10 11 10 11 11 12 12 13 14 14 14 14 14 14 13 12 12 12 12 12 12 12 12 12 13 13 14 14 14 14
5 2 3 1 0 2 5 1 1 1 5 4 1 4 4 5 6 6 3 2 3 3 3 1 4 4 1 1 1 0 2 2 2 1 4 3 8 8 7 7 8 6 6 5 5 5 6 10 11 11 14 14 14 13 12 12 12 10 11 11 11 11 10 10 10 12 11 10 10 11 11 12 12 13 13 13 14 14 13 13 13 12 12 12 12 12 12 12 12 12 12 12 13 13 14 14 13
1 3 4 4 2 4 3 2 2 3 3 6 2 3 7 5 5 4 3 2 1 4 0 2 4 4 3 1 1 0 0 1 3 2 5 6 8 8 8 6 7 7 5 5 4 4 5 10 11 11 12 13 14 13 12 11 11 11 10 10 11 11 11 11 10 11 11 12 12 12 13 13 13 13 14 13 13 13 13 13 13 13 12 12 11 11 11 12 12 12 12 12 12 12 13 13 13
1 1 1 2 1 3 1 0 3 5 1 5 2 4 5 6 3 3 3 3 2 2 1 2 2 4 1 3 2 2 5 0 1 5 10 10 9 8 8 7 6 6 5 4 4 3 9 10 10 9 9 12 12 13 12 12 11 10 11 11 10 10 10 10 9 10 11 11 11 11 11 12 12 12 12 13 12 13 13 13 12 12 12 12 11 11 11 11 11 11 11 11 11 12 12 12 13
4 5 0 4 1 2 2 2 3 2 5 1 2 2 1 3 4 4 2 0 0 0 5 3 3 2 2 1 0 2 2 2 4 10 11 12 10 9 7 7 7 5 4 3 4 4 4 7 8 8 8 9 10 11 12 11 11 10 9 11 11 11 11 10 8 7 9 9 9 11 11 11 11 11 12 12 12 12 12 12 12 11 12 11 11 11 11 10 11 11 11 11 11 11 11 11 12
1 2 1 1 2 1 2 2 1 1 2 1 3 4 5 3 3 1 4 1 2 4 1 0 1 2 3 2 1 1 1 1 7 8 9 11 11 9 8 7 5 6 3 2 2 3 3 6 7 8 8 8 8 7 10 10 11 10 9 12 10 10 10 9 8 9 9 9 10 9 10 11 11 12 12 12 12 11 11 11 11 10 11 11 10 10 10 10 10 10 10 10 10 10 10 10 11
1 5 2 2 3 1 0 4 2 4 1 3 1 3 3 3 3 2 0 3 1 2 1 1 4 4 3 1 2 2 1 3 10 9 8 10 9 10 8 6 5 4 5 2 1 1 2 3 5 8 8 7 7 6 8 8 9 10 9 9 10 10 9 9 9 9 9 9 10 10 9 10 11 11 11 11 11 11 11 10 11 11 11 10 10 10 9 9 9 9 9 9 9 8 9 9 9
1 1 1 3 1 3 2 1 2 4 4 1 2 1 2 4 1 3 1 5 1 2 3 4 3 5 3 1 2 2 1 4 8 8 7 7 8 8 9 6 7 4 4 4 2 1 1 1 1 5 8 7 6 7 6 7 8 8 8 10 10 11 10 9 9 10 11 9 9 10 10 11 11 11 11 10 9 10 11 11 10 10 11 10 9 8 8 8 8 8 8 8 8 8 7 8 8
2 2 5 3 2 1 1 0 1 0 2 3 3 1 3 3 5 6 4 1 2 3 1 4 7 3 2 3 3 1 3 5 3 7 7 8 7 6 5 6 7 6 6 5 4 2 2 2 2 1 3 7 7 6 6 6 7 6 9 10 8 9 10 10 10 10 10 9 9 9 9 9 9 10 10 10 8 10 11 10 9 10 10 9 8 8 8 7 7 7 7 7 7 7 7 7 7
3 5 4 1 1 2 2 0 1 3 3 3 2 0 4 2 5 5 7 5 3 3 2 3 6 5 2 2 2 2 6 5 4 5 6 6 6 7 8 7 6 7 5 6 6 5 5 2 1 1 2 4 4 5 6 6 5 6 9 8 9 8 9 9 9 6 8 11 9 7 6 8 10 9 9 8 8 9 8 8 8 9 9 9 8 8 7 6 6 6 5 6 6 6 6 6 7
2 2 3 3 1 1 1 2 6 5 4 3 3 4 2 4 2 2 7 6 4 3 1 1 3 2 4 7 5 8 9 7 7 6 8 6 6 7 8 8 8 6 6 5 5 6 6 5 4 1 2 4 4 4 3 3 6 7 8 8 9 7 7 9 8 9 9 9 9 8 8 9 8 9 8 7 7 7 7 8 8 8 9 8 8 7 6 5 5 4 4 4 4 5 6 6 6
4 4 2 1 1 2 2 1 1 3 5 4 2 3 4 1 2 6 4 2 2 1 1 3 0 1 2 9 6 12 10 8 7 8 9 9 5 4 5 6 7 8 8 7 6 5 6 5 5 3 2 3 4 3 3 3 5 6 7 8 8 9 10 10 9 8 9 9 9 9 9 7 7 6 8 6 7 8 7 6 7 7 8 8 7 6 6 5 4 3 2 3 3 5 6 6 6
2 3 0 2 3 2 3 2 4 2 4 3 2 4 6 2 1 1 1 1 8 2 1 0 1 1 4 3 3 8 9 9 9 10 9 8 7 5 3 4 4 5 5 7 7 6 6 6 6 5 3 4 4 4 4 4 4 6 6 7 9 10 10 9 9 9 9 8 8 8 7 5 4 4 5 4 6 4 6 7 7 7 7 7 6 6 5 4 3 2 1 2 3 4 5 5 6
2 2 3 3 4 3 4 4 7 1 1 3 4 5 6 2 1 1 1 5 3 1 1 4 1 1 2 3 1 10 10 12 11 13 9 9 7 7 6 5 6 8 7 8 7 7 7 7 7 6 5 4 4 4 3 3 4 5 4 4 5 7 8 8 7 5 6 4 7 6 4 4 4 4 4 5 4 3 4 7 6 7 6 5 5 5 5 4 3 2 0 1 3 5 5 3 4
3 1 2 7 5 5 6 3 5 2 5 3 3 3 5 5 7 2 3 1 0 1 1 2 2 2 4 2 6 11 12 10 11 12 13 13 11 13 11 8 7 8 7 7 7 9 7 6 7 7 6 5 4 4 4 5 4 4 4 4 4 6 6 5 5 4 4 5 4 4 4 3 3 3 4 4 4 3 3 6 7 7 7 6 4 4 3 3 2 2 1 3 5 5 3 2 2
2 5 5 6 4 3 5 4 3 6 2 3 6 3 3 2 4 1 3 5 0 6 5 1 2 4 0 4 8 10 11 10 10 11 12 12 10 11 10 11 10 10 10 8 8 7 7 7 8 8 7 5 6 5 4 5 4 4 4 4 5 4 5 5 4 4 4 4 5 4 4 3 3 3 4 7 6 3 3 4 3 5 7 6 5 2 1 2 3 5 5 4 3 2 1 2 2
1 2 5 5 4 2 4 7 3 4 4 3 4 2 3 1 3 3 4 5 4 6 6 9 10 7 6 6 9 10 11 10 9 9 10 10 9 8 10 11 10 8 6 5 5 8 9 8 7 7 7 6 6 5 5 5 4 4 4 4 5 4 4 4 5 4 4 4 4 4 4 3 3 3 4 3 3 3 2 1 1 2 2 2 2 2 1 1 2 1 2 2 1 1 2 2 2
4 6 3 2 1 2 4 3 5 4 3 7 4 6 4 2 1 3 10 8 8 10 10 9 7 9 11 11 10 9 11 12 11 10 12 14 15 13 8 6 3 5 5 7 9 7 8 8 8 7 7 7 6 6 6 5 5 5 4 5 5 4 5 5 4 4 4 4 4 4 4 4 3 4 3 3 3 3 3 3 2 2 2 2 2 2 2 1 1 1 2 2 3 1 2 4 2
4 2 2 3 3 3 0 3 4 5 3 5 5 4 4 5 1 4 9 9 6 6 4 9 6 12 13 11 12 11 11 13 13 14 13 13 12 11 10 8 8 9 9 10 7 7 8 8 8 8 8 7 7 6 5 5 5 5 5 5 5 5 4 5 5 4 4 4 4 4 5 4 4 4 4 3 4 3 3 3 3 3 3 3 2 2 2 1 2 2 2 3 3 3 4 4 3
3 4 0 4 4 4 2 1 4 3 10 6 4 3 4 4 4 1 5 8 6 2 3 6 6 4 8 11 13 16 16 16 16 15 14 16 15 15 13 12 9 5 5 6 6 7 8 10 9 8 9 8 8 6 6 6 5 5 6 5 5 6 6 5 5 5 4 5 4 5 5 5 5 4 4 4 4 3 4 4 4 3 3 4 3 2 3 2 1 2 2 3 4 3 4 4 5
6 4 4 2 1 4 2 1 1 1 3 2 6 4 5 7 4 4 6 11 8 4 0 5 8 8 7 11 14 12 12 11 11 12 9 8 8 7 5 5 5 5 8 8 7 8 9 9 9 10 9 10 8 7 7 6 5 5 5 5 6 6 6 6 6 5 5 5 4 5 4 5 4 4 5 5 3 4 4 4 4 4 3 4 3 4 3 4 3 3 3 5 3 4 4 5 4
5 9 4 1 3 3 2 1 2 3 1 2 4 4 3 4 1 2 8 7 6 2 3 5 8 9 10 11 13 13 13 15 14 11 14 10 7 8 10 8 8 9 11 9 8 9 8 8 10 11 10 10 9 8 7 7 7 7 7 6 6 6 6 6 5 5 5 5 5 4 5 5 5 5 5 4 5 5 4 4 4 4 5 4 4 5 5 4 5 3 4 4 5 5 4 6 3
5 4 5 5 3 1 0 6 5 3 1 4 5 4 4 1 4 7 3 7 4 4 4 5 10 11 11 10 10 11 13 15 17 14 7 7 8 11 11 9 10 11 9 9 9 8 7 8 10 10 9 9 8 9 9 9 8 8 8 7 6 6 6 6 5 6 5 5 6 5 5 5 6 5 5 5 5 5 4 4 5 5 5 5 5 5 3 5 4 5 5 5 5 5 5 5 4
4 7 4 3 3 0 0 1 3 1 2 4 5 5 1 2 1 9 4 3 6 7 5 7 8 10 12 12 12 12 12 13 9 6 14 12 13 13 13 12 12 10 11 11 9 7 7 10 10 10 10 9 10 10 9 9 9 9 8 7 7 7 6 6 6 6 6 6 5 6 6 6 5 6 6 5 6 5 5 5 5 5 6 5 5 5 5 4 4 5 4 4 4 3 5 5 4
1 5 3 5 2 4 2 5 4 4 3 4 2 2 4 2 11 7 5 3 5 7 8 8 10 9 10 11 11 9 13 10 8 10 14 15 13 11 14 13 12 12 9 9 9 8 10 10 10 10 10 9 11 11 9 9 8 7 7 8 7 7 7 6 7 7 6 6 6 6 6 6 6 6 6 6 6 6 6 6 6 6 6 5 5 4 4 4 4 5 6 3 4 3 4 6 4
4 1 4 0 1 3 7 1 2 6 2 5 4 7 8 12 16 3 6 6 4 5 6 8 9 9 9 9 10 11 8 6 10 14 13 12 11 12 14 12 12 11 9 8 8 11 9 7 8 8 9 11 11 10 9 8 8 8 7 7 7 7 7 7 7 6 7 6 6 6 6 7 7 6 6 6 6 6 7 7 7 7 6 5 5 5 5 5 5 5 7 4 6 5 6 6 5
7 2 1 4 3 5 2 5 5 6 2 6 2 8 9 10 4 5 5 6 9 10 10 9 9 9 9 10 10 11 12 12 15 15 13 12 11 10 12 10 11 11 8 8 11 11 10 9 8 8 9 10 10 11 11 10 8 8 8 7 7 8 7 7 7 6 6 7 6 7 7 7 7 8 7 7 7 7 7 7 7 7 6 5 5 5 6 5 5 7 6 6 5 5 5 6 6
2 5 7 0 7 4 3 1 9 9 0 4 4 5 13 10 6 7 6 7 9 12 10 10 9 9 10 9 11 11 13 12 13 11 13 12 10 11 11 13 11 11 13 11 10 9 11 10 9 10 9 11 11 11 11 10 9 9 8 8 7 7 7 7 7 7 7 7 7 7 7 7 7 8 7 7 7 7 7 8 8 7 6 5 6 6 6 6 6 6 6 5 5 6 6 7 5
3 10 1 8 5 6 2 4 6 8 4 1 9 8 2 3 3 1 1 5 5 8 8 8 9 10 9 9 10 10 10 9 10 13 13 12 11 11 11 12 12 14 12 10 10 10 10 11 11 12 12 12 11 11 10 9 8 8 8 8 8 8 8 8 7 7 7 7 7 8 8 8 8 8 8 8 8 8 8 8 7 7 6 7 6 6 6 6 6 6 6 6 6 7 6 6 6
8 4 5 3 11 4 5 3 2 4 6 6 5 6 12 3 5 3 3 4 5 7 9 7 7 7 8 8 8 9 10 11 13 14 16 13 12 14 13 12 13 11 11 12 11 12 13 11 11 12 11 11 11 11 10 9 9 9 8 7 8 8 9 8 7 7 8 7 7 8 8 8 8 8 8 8 8 8 8 8 7 7 6 6 6 6 7 5 5 6 7 6 6 6 6 6 7
8 7 6 2 0 5 6 6 3 7 4 6 5 10 16 11 9 11 3 2 5 8 8 9 9 9 9 9 9 10 11 12 16 13 14 14 14 13 13 12 11 11 10 12 12 11 9 10 10 11 11 10 10 10 10 9 8 7 6 7 7 8 7 7 7 7 8 8 8 9 9 8 8 8 8 8 8 8 7 7 8 7 6 6 6 6 6 6 6 6 7 7 5 7 7 6 7
14 10 7 4 9 8 9 6 1 12 6 7 6 12 15 11 12 14 9 5 5 8 4 6 7 7 8 8 9 10 11 15 14 11 11 11 12 13 13 12 11 11 11 10 12 11 11 10 9 10 11 11 9 9 8 8 7 8 8 5 6 8 7 8 8 8 8 9 9 9 9 9 8 9 9 9 9 8 8 8 8 7 7 6 7 7 7 7 8 7 8 8 8 5 4 5 4
7 6 6 10 10 5 1 3 2 5 2 10 13 15 12 10 12 14 12 3 5 7 7 7 8 9 9 9 10 11 12 15 12 13 12 12 14 14 12 11 11 10 11 11 11 12 13 14 12 13 11 10 10 10 10 10 10 8 7 10 12 9 9 9 9 9 9 9 10 10 9 9 9 9 9 9 9 9 8 8 8 7 6 6 7 9 8 8 8 8 7 5 7 7 5 4 3
11 9 9 11 9 11 5 6 1 3 5 4 7 9 12 15 14 14 7 3 10 10 11 12 12 11 10 10 11 11 14 7 6 7 9 7 9 9 9 9 9 12 12 12 14 16 15 13 13 13 10 11 12 12 11 10 10 11 10 11 9 9 9 9 10 9 10 9 9 10 10 9 10 10 9 9 9 9 9 8 8 8 7 7 8 7 6 6 6 6 5 5 4 8 7 5 4
10 10 9 8 9 0 1 1 0 3 4 9 1 6 13 13 13 13 10 11 9 9 12 14 12 13 11 10 10 11 8 10 8 11 9 9 10 10 10 11 12 15 15 16 16 14 13 13 14 12 11 12 12 12 11 12 10 9 9 8 10 8 6 8 9 8 7 9 10 10 10 10 10 10 10 9 9 9 9 9 8 7 7 7 7 7 7 8 7 8 8 9 6 4 5 2 5
8 6 8 12 4 7 6 3 2 4 7 1 1 5 12 7 8 14 15 10 10 11 12 13 11 12 12 12 12 12 13 12 13 13 13 11 10 11 10 11 13 12 12 11 12 15 13 13 13 13 13 12 12 13 13 11 10 9 8 7 6 8 7 7 6 6 7 9 11 10 10 11 11 10 9 9 9 9 9 10 8 7 8 7 8 9 8 10 8 8 8 9 7 6 4 6 5
2 8 8 4 6 6 4 4 1 1 1 2 2 8 12 7 10 10 11 7 9 13 10 11 12 10 11 9 8 9 12 12 14 14 12 9 9 11 13 13 10 12 13 14 14 14 12 15 15 15 13 13 12 11 12 9 7 5 5 2 1 3 1 3 4 8 10 10 9 10 13 9 9 10 9 10 9 10 9 9 9 8 8 8 8 9 9 10 9 8 9 8 9 10 9 4 4
5 5 6 4 5 5 3 2 5 1 3 3 3 3 11 2 11 15 10 2 7 8 9 15 15 12 10 12 14 11 11 11 13 15 15 12 12 10 10 11 12 13 14 14 13 15 14 13 13 12 11 11 12 13 12 10 10 10 8 9 9 8 9 8 12 15 11 11 13 9 5 9 9 9 9 9 9 9 9 9 9 8 8 8 8 9 8 7 8 8 8 8 9 8 9 5 4
10 8 8 5 5 5 5 4 3 4 6 2 2 10 11 1 5 7 7 5 14 4 9 12 10 11 9 12 12 14 15 14 12 12 11 8 9 9 10 12 14 15 15 12 12 13 13 12 12 13 13 11 11 10 12 11 10 10 14 14 12 12 12 12 11 8 8 8 6 8 8 5 8 9 9 8 8 8 8 8 8 9 8 8 7 8 9 9 8 8 6 7 9 8 6 9 9
9 7 11 5 5 4 4 5 7 4 1 2 0 3 6 14 10 5 2 3 9 7 13 12 12 10 12 12 14 14 14 12 12 14 15 13 11 13 15 16 13 15 13 11 12 11 14 14 13 14 12 12 11 10 12 13 13 13 12 12 11 12 13 14 10 9 5 4 7 8 6 6 6 8 9 8 8 8 8 8 8 8 9 8 7 8 9 8 7 5 7 8 8 7 8 10 9
2 7 10 6 5 3 4 3 2 1 1 7 3 0 1 10 5 2 1 7 11 15 16 12 10 11 13 14 15 13 13 14 14 14 15 15 15 14 13 12 14 13 11 12 13 13 13 14 14 12 12 11 10 12 13 14 14 13 12 11 11 12 12 10 4 4 6 6 7 6 7 7 6 7 8 8 8 9 8 8 8 9 9 9 8 8 7 7 8 7 7 7 8 9 9 10 9
2 4 9 7 7 6 4 3 2 2 1 11 7 5 7 14 7 5 1 3 12 16 15 14 12 10 11 11 11 13 14 12 11 14 15 14 12 12 12 10 7 12 13 12 12 11 12 11 12 12 13 11 11 12 13 14 14 11 11 12 15 14 10 6 4 6 6 6 9 8 6 6 6 6 7 8 8 8 9 8 9 10 10 9 8 9 8 8 8 8 9 9 9 10 9 10 11
8 10 9 6 6 4 3 4 2 1 5 14 7 10 9 11 13 11 9 11 15 11 5 6 4 6 10 9 12 13 12 11 10 11 12 12 9 8 6 10 12 8 8 9 10 11 10 10 12 13 14 12 11 13 13 14 13 12 13 14 16 15 12 9 8 9 7 7 9 8 7 6 6 7 6 7 8 8 8 9 9 10 9 9 9 9 9 9 9 9 9 10 10 11 9 10 11
10 3 6 8 4 5 5 3 2 2 10 3 12 12 9 13 7 5 11 5 7 11 14 9 7 10 12 12 10 10 9 9 8 8 10 11 10 7 6 10 10 10 7 9 10 8 9 10 10 13 12 12 11 12 12 13 13 14 14 15 15 16 12 11 13 14 11 11 10 8 5 5 6 6 7 7 8 9 9 9 10 10 10 10 10 9 9 9 9 9 9 10 11 13 13 11 11
7 10 10 10 3 3 4 2 2 8 11 0 3 9 2 22 8 3 4 11 8 8 7 7 9 12 12 11 10 9 6 5 5 8 9 9 10 10 9 10 8 8 11 12 11 10 10 10 12 14 14 13 13 12 14 15 14 15 15 15 15 13 12 14 14 13 10 10 8 8 7 8 6 7 8 9 9 10 10 10 9 9 9 9 10 9 9 10 9 9 9 9 10 11 10 11 10
10 13 12 11 6 7 10 9 1 3 2 2 3 0 9 8 4 14 18 14 12 10 11 12 8 9 10 9 8 6 6 5 7 8 9 10 10 10 10 10 10 10 11 11 11 11 11 11 12 14 15 13 12 12 14 14 16 16 15 15 14 12 12 13 12 12 10 8 7 9 9 8 8 10 9 10 9 10 9 9 10 10 9 9 9 10 10 10 10 9 9 9 9 9 9 13 14
16 10 14 11 11 5 13 8 13 10 4 1 3 6 9 6 6 1 7 8 8 7 8 6 8 11 10 7 6 7 7 8 8 8 10 11 11 10 9 10 9 9 9 9 9 11 10 11 12 14 13 11 12 13 12 15 15 15 14 14 13 11 12 11 12 10 8 8 7 8 8 7 9 9 9 9 8 9 10 10 10 10 10 10 10 10 10 10 10 9 9 10 9 6 6 7 8
7 4 4 5 12 1 3 1 1 2 3 1 3 8 2 7 4 7 8 6 8 7 8 6 10 8 6 8 9 10 10 9 7 7 9 10 8 6 6 6 7 7 8 8 9 10 11 12 12 14 15 14 14 14 14 15 15 13 14 14 14 12 11 9 9 7 7 7 7 8 8 9 9 8 8 6 8 9 9 10 10 11 10 10 10 11 11 10 10 10 9 10 11 8 10 12 10
9 6 13 9 5 9 4 3 2 2 4 9 3 8 7 8 12 15 15 7 10 8 9 7 10 9 6 9 9 9 10 9 9 8 8 7 4 6 6 6 6 7 7 10 12 11 13 12 11 13 12 10 12 14 15 13 13 12 13 12 11 10 11 12 12 9 7 6 7 8 9 9 8 8 6 7 8 8 9 9 10 10 11 10 10 10 11 11 11 11 9 8 10 11 10 9 9
10 11 9 4 4 5 4 4 3 1 5 8 4 15 6 4 14 1 10 15 18 15 15 13 7 4 7 11 9 10 11 10 7 5 5 5 5 6 6 6 7 9 11 10 11 11 11 12 13 14 13 14 12 11 12 12 12 12 11 11 11 11 11 11 9 8 6 7 8 8 7 8 9 8 8 7 8 8 8 9 9 10 9 10 11 10 10 10 9 8 11 10 8 8 11 11 11
11 15 10 11 5 8 1 4 4 3 6 6 4 3 4 10 14 1 2 10 14 16 14 6 7 6 9 9 10 10 8 7 8 7 5 6 7 8 8 9 8 7 7 8 8 7 7 7 7 10 13 13 13 12 11 10 9 9 9 11 11 10 9 8 7 7 7 9 10 9 9 9 6 7 7 7 7 8 8 9 9 10 9 10 10 10 9 9 9 8 7 9 10 8 9 9 6
5 8 8 1 2 3 7 9 1 3 7 3 8 4 12 11 9 11 10 7 10 11 6 9 12 11 10 9 9 9 9 9 8 6 6 6 7 7 8 9 9 9 8 8 6 5 8 9 8 9 7 6 6 7 7 9 9 8 8 6 6 7 8 9 9 9 9 11 10 9 9 7 9 7 8 8 8 9 8 8 8 9 9 9 9 8 9 9 9 9 7 7 9 10 10 9 6
4 8 7 3 5 1 2 1 7 6 6 9 9 9 11 7 8 13 17 13 10 10 12 10 9 6 8 9 10 9 9 9 8 6 6 6 6 6 6 5 5 4 4 4 5 8 8 6 7 7 9 8 8 8 7 8 7 8 7 9 8 7 9 8 8 9 10 10 8 8 9 9 5 9 8 8 8 8 8 9 9 9 9 9 8 8 7 6 7 7 7 6 4 5 6 5 4
20 20 19 19 18 11 14 12 2 3 6 8 6 18 12 2 6 12 14 17 19 18 13 7 6 7 8 10 9 7 7 8 7 6 6 6 6 6 5 3 2 3 4 5 5 4 5 7 8 7 5 6 7 7 9 8 7 8 9 9 9 7 8 7 8 7 9 9 9 9 8 6 8 8 7 8 8 7 7 8 8 8 7 7 7 7 7 7 8 9 9 8 6 7 7 6 5
Wind_Direction
317 324 344 86 69 94 56 360 149 318 62 177 9 33 189 350 212 62 179 348 59 303 303 44 72 53 179 207 162 164 204 139 197 132 217 237 245 145 141 133 134 134 137 141 149 155 164 152 129 126 127 123 122 123 122 124 125 115 108 117 121 119 120 109 105 113 112 106 109 108 114 117 114 113 111 106 107 104 100 96 93 91 89 88 87 87 87 86 86 87 85 81 78 81 84 92 99
288 320 33 95 69 59 263 124 98 354 35 56 243 105 238 278 92 212 174 167 190 131 332 84 73 80 76 83 105 122 31 231 187 188 258 277 91 112 149 141 144 144 143 141 153 151 140 135 131 132 134 131 129 132 132 130 127 123 127 125 124 125 125 118 117 118 120 118 119 119 116 115 113 112 116 117 114 106 102 98 93 94 92 91 88 88 87 86 87 87 85 82 78 83 88 92 96
331 356 39 31 35 72 80 35 281 27 98 182 273 208 329 135 178 210 217 176 152 143 161 98 98 76 55 85 36 1 215 201 93 65 78 115 131 210 160 147 148 145 142 146 149 137 132 137 139 143 142 137 138 139 131 137 133 137 135 135 133 125 119 121 122 120 112 115 120 122 124 118 111 113 116 116 114 108 104 100 95 93 93 90 89 89 87 87 87 89 88 83 80 85 88 92 94
94 44 84 64 288 33 61 29 87 126 125 204 296 276 200 180 208 194 206 172 147 142 184 21 50 276 112 65 150 115 48 351 191 148 144 176 216 148 156 150 147 143 141 147 146 141 139 147 148 148 148 142 144 144 139 144 140 128 134 135 132 128 128 134 127 125 127 124 125 128 129 120 114 116 114 110 105 102 98 98 99 96 94 91 89 89 87 87 88 88 88 84 81 84 87 89 92
60 347 78 98 100 356 97 106 137 100 182 197 183 270 245 213 179 188 186 217 230 191 262 143 74 338 252 129 100 156 225 71 114 153 135 199 134 142 148 146 148 146 149 150 144 146 150 152 150 150 149 146 145 143 144 146 140 140 143 140 136 135 137 141 135 128 122 130 137 134 133 130 125 119 116 111 105 101 101 102 102 102 100 97 92 90 90 89 89 91 89 86 84 85 85 87 89
59 45 355 85 23 161 50 45 21 230 222 151 132 235 218 209 180 187 172 216 241 209 199 76 160 193 13 293 164 135 196 115 181 200 149 212 142 144 148 148 147 148 148 144 147 149 156 157 152 154 151 149 147 150 149 150 147 147 145 145 138 137 135 146 141 135 135 136 134 138 136 132 129 124 117 113 108 108 108 106 105 108 106 100 96 94 93 93 94 94 93 90 88 90 86 87 91
313 44 357 25 21 51 178 134 238 210 279 168 203 210 186 201 221 136 164 143 205 76 252 165 128 94 66 309 13 254 151 215 120 200 149 146 133 142 145 148 146 146 147 144 143 149 160 157 158 160 157 152 153 153 154 146 144 150 151 149 148 147 145 150 148 141 143 138 133 134 136 132 126 126 123 117 114 113 112 111 110 111 107 100 97 95 96 93 94 95 95 91 87 88 89 89 91
65 106 325 89 281 33 37 126 259 162 260 170 226 177 189 202 168 150 171 105 206 114 34 142 141 100 248 12 180 267 347 202 210 121 120 132 137 142 144 149 148 150 146 148 146 148 163 158 163 160 158 152 159 159 154 149 149 154 155 153 152 145 145 152 153 151 142 144 138 130 135 130 128 128 122 119 116 115 113 112 113 109 103 96 94 93 91 91 91 93 93 89 84 79 76 78 81
353 88 311 68 37 37 47 313 274 238 285 271 263 271 233 184 160 141 148 249 48 92 152 213 232 90 241 54 206 272 311 10 109 124 132 134 142 146 142 153 153 150 148 151 149 156 155 167 158 149 148 154 163 163 154 152 150 155 159 148 148 148 151 155 163 145 125 134 137 127 132 129 129 125 120 117 115 113 111 110 108 107 98 95 92 88 87 87 86 87 88 86 82 78 75 77 78
35 53 290 119 136 320 15 304 28 191 227 257 176 198 175 186 186 191 151 109 178 126 243 215 146 122 150 147 324 357 320 71 118 113 139 144 145 144 145 153 155 150 143 142 148 149 155 168 152 146 147 159 168 159 151 152 154 158 160 144 147 150 150 149 152 141 134 139 138 128 127 129 128 125 121 118 115 115 115 116 110 107 98 93 91 90 88 87 87 88 88 87 83 80 79 79 80
289 13 135 79 29 64 31 290 258 310 302 330 299 246 236 135 139 145 235 168 8 155 204 135 35 117 100 268 211 250 273 158 132 153 158 147 145 148 146 147 145 148 140 127 89 119 159 159 148 148 149 158 163 148 144 154 161 161 166 147 150 153 148 144 146 146 143 145 138 136 132 129 130 129 123 118 118 118 120 117 113 109 106 100 98 91 88 89 89 90 93 93 91 87 84 81 79
324 16 4 106 181 157 234 171 291 278 297 341 254 169 198 165 123 128 201 130 222 144 183 153 192 144 58 357 294 326 53 188 157 149 150 145 147 150 144 143 141 136 136 125 81 49 50 107 103 154 153 152 151 152 152 158 164 169 160 157 158 153 152 152 153 156 153 150 145 143 141 136 136 129 124 117 114 121 121 116 117 114 107 108 101 101 98 98 98 97 96 96 95 93 88 82 77
112 97 83 96 215 144 192 93 265 353 353 274 196 228 123 131 193 184 183 105 146 133 294 216 133 82 108 189 261 289 163 215 150 139 143 151 147 137 135 139 145 139 137 125 119 94 52 40 41 62 157 155 151 156 165 169 175 178 150 162 165 156 157 158 159 166 161 149 139 145 143 137 130 127 120 116 123 125 121 119 122 118 116 117 117 114 109 101 98 95 94 92 93 93 88 79 69
120 181 130 204 83 134 152 193 347 145 264 245 260 194 161 153 245 176 131 134 212 159 265 180 139 131 100 15 295 231 216 198 141 128 131 140 140 142 146 147 146 148 150 149 150 150 141 127 117 52 150 156 155 161 176 179 180 162 156 165 161 164 164 159 162 147 107 104 112 110 104 116 119 113 113 120 124 122 114 122 125 129 130 126 127 116 111 107 100 94 89 89 87 83 77 67 53
145 143 83 116 120 79 229 116 200 156 237 190 213 134 195 263 132 177 162 145 240 215 326 26 172 121 228 156 262 213 193 184 141 130 124 123 136 145 150 153 155 155 153 160 159 156 162 147 154 178 160 152 152 162 172 188 162 157 155 159 161 164 126 116 107 113 118 115 113 109 106 106 108 111 111 108 110 117 124 121 127 133 135 131 129 127 122 121 112 101 88 82 70 63 59 50 40
138 85 81 128 223 164 266 150 57 117 249 182 233 167 143 308 209 145 257 148 163 348 126 201 84 186 173 174 218 189 170 147 138 127 126 126 120 124 145 155 161 166 165 166 171 178 163 150 150 168 169 152 155 156 167 174 155 146 145 156 151 133 133 129 127 121 118 115 114 112 109 107 108 113 117 120 126 122 120 123 127 132 138 139 141 140 138 134 133 119 97 68 56 48 41 34 24
68 78 170 51 223 164 243 147 137 191 245 240 272 165 174 228 240 243 327 53 130 184 39 247 189 23 182 211 264 152 143 127 126 125 124 132 138 138 138 156 164 173 174 175 177 178 171 164 161 168 175 163 157 161 162 168 164 150 143 143 140 143 139 140 137 128 120 120 119 118 113 112 119 123 122 129 125 124 131 133 134 138 146 146 151 153 150 151 147 141 107 62 39 42 26 22 15
70 151 127 214 194 152 208 169 189 198 128 236 185 204 131 167 172 212 48 35 39 17 78 312 325 358 253 261 244 144 134 137 144 139 150 149 158 155 169 183 174 188 188 182 188 183 172 176 168 173 171 174 164 164 167 170 163 155 144 144 146 147 144 141 138 141 134 132 133 129 127 129 131 138 139 131 125 126 141 144 146 134 133 130 157 165 166 166 168 174 148 6 43 33 18 17 7
112 118 127 227 169 231 158 196 197 131 245 216 192 177 166 202 144 220 119 259 86 130 301 5 324 321 15 76 139 139 142 147 156 156 161 165 174 173 177 179 193 189 201 197 187 185 183 176 178 182 178 173 167 171 173 174 166 158 155 153 149 149 149 144 151 146 145 144 149 141 139 141 144 148 149 147 142 134 144 157 147 138 135 142 164 175 177 184 197 218 303 14 29 11 8 17 349
226 124 209 237 204 217 188 178 210 202 150 166 162 213 169 201 142 140 175 180 291 194 195 323 257 243 202 137 152 149 154 158 166 165 170 174 180 178 176 185 195 198 194 194 186 187 183 182 183 186 180 176 170 181 176 178 173 161 158 156 150 152 153 155 155 157 158 157 156 152 150 152 152 155 153 141 131 122 90 77 105 144 148 155 167 151 344 347 348 353 346 1 2 12 349 335 335
244 111 191 230 204 200 228 176 208 215 171 163 145 92 166 247 197 148 161 124 253 259 239 178 199 206 175 169 163 158 163 165 176 176 175 180 187 194 196 193 193 191 186 175 194 195 189 184 181 189 181 179 177 179 180 182 176 161 162 163 159 160 162 163 165 166 171 172 164 160 160 157 159 151 143 147 151 140 124 120 108 87 96 119 121 159 297 307 331 319 344 340 348 325 330 284 296
112 207 199 199 122 192 245 192 150 148 177 119 135 134 206 90 79 133 155 174 214 213 220 220 205 166 157 166 177 169 173 176 182 184 188 186 187 194 195 199 184 166 163 190 199 193 195 187 183 185 187 185 186 179 181 176 167 178 176 173 166 175 170 173 175 177 179 182 173 167 154 157 164 161 159 164 163 156 156 168 172 155 182 186 175 204 248 269 269 278 295 292 276 248 263 270 265
200 284 233 227 209 184 263 182 193 144 126 136 148 199 110 150 202 192 180 196 234 227 207 201 189 178 174 160 158 174 178 187 189 194 192 193 199 200 197 194 185 185 190 201 184 193 190 191 188 185 194 187 191 180 175 175 186 186 179 177 171 187 185 176 184 187 190 182 181 170 163 176 174 177 179 176 180 174 177 180 175 192 198 204 203 203 237 260 260 261 263 270 281 285 284 277 264
151 214 199 241 179 203 182 214 129 194 131 189 188 107 150 156 203 154 196 240 236 277 263 194 165 134 140 153 179 178 186 188 197 199 197 199 197 199 195 192 201 191 192 195 190 191 191 194 188 186 195 192 189 183 179 184 187 185 190 181 189 185 181 191 189 191 188 190 186 184 180 175 177 181 193 185 195 187 195 188 190 196 211 214 204 223 237 253 256 261 275 283 289 285 283 287 290
178 237 194 260 148 235 225 229 148 187 183 139 117 134 216 175 183 119 233 239 252 274 53 128 135 146 165 170 181 189 191 200 203 204 206 213 212 210 213 217 202 188 202 199 193 192 199 192 186 190 190 194 190 181 191 186 185 189 189 191 197 188 193 192 192 190 193 191 192 188 177 179 184 185 188 201 177 204 212 190 191 204 201 209 196 227 225 243 253 243 255 266 284 282 279 279 270
198 205 147 171 228 252 222 179 229 214 130 144 119 216 259 225 123 229 230 241 233 99 108 136 139 156 177 190 188 187 193 199 202 200 206 202 200 201 213 205 198 203 208 199 192 202 195 189 192 193 190 191 189 185 194 187 190 192 196 197 198 188 200 196 191 196 200 187 193 194 191 182 187 187 195 195 184 213 215 214 210 208 208 200 193 223 221 228 239 241 250 255 259 261 265 261 264
202 152 163 174 241 297 29 197 221 221 246 188 172 226 238 15 153 262 260 226 110 113 129 162 155 176 188 191 197 202 198 202 201 202 194 203 209 207 213 208 206 211 203 205 201 199 191 190 200 195 190 187 188 193 193 195 188 198 198 196 195 197 197 196 198 202 203 199 195 190 193 195 187 192 195 191 199 206 212 213 218 211 217 214 205 225 212 219 229 230 229 232 238 248 254 260 260
143 177 173 242 285 329 45 315 265 69 274 189 186 222 322 301 77 226 211 217 160 148 163 175 187 186 193 198 197 202 208 214 206 177 201 199 209 207 208 205 209 207 206 210 202 192 184 196 199 196 193 187 190 197 193 195 196 199 198 194 199 198 193 199 201 202 207 206 198 194 195 199 196 199 197 196 198 204 208 212 220 205 221 216 209 222 222 221 226 241 247 241 243 244 264 273 256
211 136 157 244 268 283 227 204 219 153 251 147 148 347 275 207 232 212 215 150 172 171 177 190 195 202 202 202 204 204 212 207 196 206 212 210 209 205 212 207 202 205 212 205 197 191 196 193 197 199 192 189 194 197 196 199 197 198 197 200 200 194 197 200 203 204 206 208 204 199 201 200 200 201 203 200 201 205 209 212 217 218 218 213 207 216 226 232 242 255 261 249 263 258 268 271 272
93 49 142 322 117 280 242 127 100 148 248 154 137 247 230 231 236 155 198 156 161 180 196 201 205 203 205 204 207 215 217 205 210 215 216 214 211 208 214 211 206 207 205 202 193 203 197 195 194 194 194 193 196 197 196 197 200 199 198 200 198 195 199 201 208 206 206 208 206 206 205 203 202 206 198 205 198 205 210 214 216 220 218 211 207 201 216 218 230 236 248 241 247 240 250 257 264
184 218 72 203 135 248 279 177 154 159 229 172 108 238 264 248 261 232 219 169 168 203 211 205 209 209 207 206 209 214 216 210 214 216 219 218 215 214 218 213 209 210 205 202 203 202 196 197 191 200 191 195 193 198 198 201 198 197 197 200 200 199 199 203 205 205 207 211 205 209 207 206 207 205 202 197 202 203 210 218 218 223 212 202 204 207 212 221 215 228 229 232 249 247 247 252 235
161 126 225 17 186 277 292 242 161 186 256 156 131 256 251 265 256 238 221 189 187 212 214 213 211 212 209 209 213 217 220 217 224 226 226 224 217 218 216 217 209 207 208 205 203 196 202 199 196 201 192 195 194 198 200 200 199 199 197 199 200 200 201 205 206 204 206 209 209 211 207 208 208 210 205 199 202 205 208 215 221 218 212 195 205 209 204 218 216 227 230 211 232 247 239 254 227
246 200 179 199 164 224 353 210 221 192 125 243 178 231 332 300 272 314 305 184 199 219 224 222 222 219 216 214 214 219 228 233 231 228 227 220 221 220 219 217 211 210 207 203 199 197 203 200 199 201 199 197 196 198 200 200 197 199 197 195 199 196 203 208 207 203 205 208 210 213 208 206 210 211 208 204 205 208 211 216 218 215 206 201 203 205 205 212 208 218 232 219 213 234 227 242 251
211 200 193 200 189 176 218 310 232 237 159 203 237 233 236 234 247 269 360 157 171 219 237 238 233 230 223 223 223 222 223 227 227 224 225 216 219 217 220 218 215 210 207 205 202 198 202 198 201 203 203 199 198 197 197 197 200 200 199 196 193 199 206 207 206 200 209 210 207 213 209 207 210 210 209 207 212 212 211 211 216 213 205 207 210 205 214 207 214 209 231 223 213 222 230 228 242
175 185 189 252 32 190 198 173 251 147 265 202 208 235 247 244 273 280 232 144 175 222 225 230 228 229 227 218 220 226 226 226 233 227 223 218 219 219 219 218 214 211 209 205 203 204 199 202 201 204 202 198 201 198 197 198 197 202 202 196 199 205 207 207 201 204 209 209 210 212 210 211 212 211 209 208 212 215 215 215 217 214 204 208 212 214 219 214 214 218 220 235 221 220 222 225 232
198 183 186 147 191 209 205 211 234 169 190 234 208 227 244 247 256 257 255 195 213 239 245 260 261 248 242 227 224 223 226 232 235 234 227 220 217 216 215 213 212 209 210 203 204 201 203 201 200 203 204 197 196 198 193 199 194 195 200 207 220 215 208 207 209 209 204 211 212 209 210 213 212 213 212 210 213 215 215 217 219 216 208 203 210 217 221 215 216 218 227 226 233 242 241 249 248
122 146 172 210 210 244 262 223 221 201 167 221 222 236 249 253 244 252 253 208 235 256 256 244 244 240 236 237 227 227 228 233 229 228 228 219 216 215 214 208 210 208 208 203 201 205 204 202 194 206 200 192 191 194 196 194 196 199 209 208 214 208 210 209 212 212 212 214 212 210 211 213 212 213 215 211 215 216 219 218 217 220 210 205 212 221 220 222 219 217 226 219 228 240 250 224 240
159 171 185 215 200 222 203 196 212 182 171 267 234 256 258 249 254 257 265 203 238 230 242 244 240 236 234 231 234 231 233 247 258 255 241 235 228 220 209 208 203 205 212 202 204 206 206 202 201 206 189 195 199 197 195 197 201 199 197 208 210 210 208 207 218 214 216 217 215 213 213 213 213 213 210 212 215 213 218 219 217 219 210 214 219 224 226 225 223 220 213 239 213 224 240 203 203
169 178 190 209 227 62 314 221 68 184 140 259 204 246 252 251 257 264 253 237 236 225 227 236 233 238 233 229 233 239 241 242 238 243 241 229 226 219 206 208 209 210 207 203 207 204 204 202 208 201 197 196 201 198 193 204 201 202 198 206 201 214 218 215 221 217 211 218 219 217 216 216 215 217 212 210 214 215 219 219 220 217 216 211 219 226 222 227 217 219 208 217 230 229 239 215 190
176 167 158 217 135 158 245 262 135 195 168 221 242 253 271 274 262 258 251 234 235 236 230 237 228 235 234 228 221 226 233 237 241 238 235 226 217 216 208 210 212 209 211 212 210 207 205 207 205 202 201 199 199 200 202 202 197 199 207 204 206 202 203 207 214 218 213 216 224 218 222 218 215 218 214 213 215 217 215 219 218 216 219 209 215 223 221 226 219 220 215 220 215 241 215 239 193
217 187 194 158 171 200 167 222 102 139 313 85 19 306 284 231 261 265 258 220 230 244 242 243 244 231 238 245 244 229 232 227 235 242 240 228 217 217 210 212 206 208 211 209 205 207 207 207 206 201 200 200 202 198 199 190 181 189 193 173 152 219 276 186 208 229 221 219 224 218 223 214 218 219 215 215 213 218 217 218 217 218 217 213 210 222 224 223 221 220 215 217 211 222 238 231 229
195 232 193 156 139 160 155 116 128 55 283 242 134 331 266 226 225 240 252 80 232 235 233 240 239 231 226 237 241 241 237 233 231 236 234 224 217 219 216 212 207 212 213 211 206 208 207 208 205 203 202 201 202 199 191 183 189 188 179 193 203 205 216 208 215 219 212 214 220 224 223 209 215 220 217 217 216 215 219 218 219 219 219 217 214 223 229 228 225 219 214 216 225 221 233 231 241
199 212 152 136 142 139 147 162 121 231 213 282 159 206 270 326 245 245 255 244 251 263 237 246 242 241 229 229 234 236 234 237 237 246 247 230 218 214 219 215 212 212 216 207 207 210 211 210 203 200 201 203 200 193 184 186 191 197 199 203 207 207 216 225 225 225 218 223 223 222 220 205 211 216 221 218 218 216 219 220 219 221 223 222 219 224 229 227 227 223 209 212 222 217 211 238 231
216 119 153 153 101 107 166 164 192 220 271 327 110 173 236 283 251 218 225 227 261 269 258 248 239 235 234 232 231 234 236 234 235 235 237 232 222 207 215 213 210 215 211 202 208 207 206 207 202 202 203 201 194 187 184 189 196 200 204 210 211 216 216 228 213 222 217 203 210 220 214 212 205 210 216 217 217 215 214 219 217 222 223 224 216 223 229 228 227 223 207 214 217 211 210 224 236
193 149 149 153 130 111 122 127 178 290 1 266 167 32 269 246 266 327 120 254 266 258 254 249 236 230 234 236 237 239 239 235 229 234 235 229 223 220 220 216 215 212 206 204 206 205 205 205 204 201 203 199 194 186 188 194 200 200 203 206 217 224 225 232 201 204 209 202 218 210 210 210 204 206 210 213 213 216 210 213 215 221 221 223 214 226 227 221 220 217 213 209 212 215 211 219 225
19 87 81 81 77 65 62 93 97 331 118 240 187 184 224 265 245 202 349 211 246 246 243 246 241 232 230 237 244 240 240 241 237 236 240 237 230 227 222 223 214 211 209 207 207 205 206 202 201 199 203 198 195 191 191 195 199 198 202 209 217 225 220 224 190 215 212 198 222 214 208 206 203 205 207 210 212 211 212 209 215 220 222 222 215 224 225 222 220 219 219 217 216 221 217 215 221
129 98 92 60 45 56 37 65 89 55 265 239 175 199 195 278 242 214 168 209 218 247 274 252 260 255 251 233 231 236 236 236 238 239 244 248 240 226 211 211 218 215 210 205 208 206 202 199 199 201 204 198 193 194 190 195 196 198 208 211 216 224 218 210 214 227 212 208 221 215 209 209 200 208 197 210 211 207 212 210 214 221 222 221 220 222 224 223 221 222 224 221 220 220 222 221 223
126 107 116 92 7 18 47 343 52 163 257 197 187 179 180 225 268 175 211 216 205 207 238 237 232 240 245 245 236 238 237 234 237 237 245 243 246 231 201 215 213 210 195 203 208 200 198 200 197 202 204 199 194 193 191 197 195 203 210 212 217 221 213 210 217 226 215 219 219 218 206 204 210 207 207 209 209 206 211 215 215 218 221 221 223 222 224 221 221 220 222 222 224 220 218 214 221
152 128 129 162 186 133 244 62 226 205 229 320 4 147 120 239 228 239 236 250 254 234 228 223 219 233 239 249 251 249 250 263 250 241 240 242 235 226 211 216 208 201 201 201 198 193 196 198 197 199 205 198 194 189 194 198 198 204 208 212 218 218 213 216 221 227 218 219 213 214 197 211 204 213 213 216 214 206 212 219 217 218 221 219 222 220 222 221 219 217 219 223 228 231 230 225 222
160 170 162 175 161 189 211 198 238 299 296 275 128 25 254 269 309 223 241 239 232 237 235 234 230 238 240 247 258 260 263 245 244 238 237 235 229 227 215 210 205 205 205 198 195 194 196 198 199 201 209 196 195 192 196 197 204 207 208 212 216 213 216 218 224 225 218 213 204 210 206 207 208 215 212 216 209 209 212 217 220 223 221 219 217 222 224 223 223 227 230 234 236 238 236 233 233
190 176 179 196 184 185 208 178 202 212 183 164 255 130 232 153 252 306 245 250 266 253 253 249 240 241 243 252 266 274 272 263 244 246 235 231 228 218 213 210 208 206 201 198 196 199 195 201 199 205 208 200 197 198 196 202 206 209 210 212 216 211 217 217 224 222 212 207 202 203 206 203 213 217 213 217 206 209 214 216 219 224 226 226 225 226 229 232 233 233 231 233 235 235 248 256 247
192 172 51 224 220 108 192 215 128 137 148 206 217 209 194 186 278 284 228 253 263 251 255 241 258 251 255 264 254 252 259 265 256 241 249 243 233 221 218 213 210 203 202 201 200 198 198 204 202 205 205 198 196 198 201 202 207 207 210 211 214 212 216 219 226 215 213 198 196 199 209 210 216 216 216 206 210 206 213 217 218 223 224 225 226 226 227 228 229 231 230 225 228 226 239 245 256
169 142 207 200 74 100 80 23 17 65 45 250 149 299 282 307 288 262 279 255 253 240 240 235 241 245 244 248 245 246 246 249 253 243 242 250 247 236 220 212 205 204 201 204 204 198 200 200 201 208 210 204 202 204 204 203 207 206 211 212 213 211 213 215 218 213 204 192 194 205 211 215 215 214 211 204 210 210 214 214 219 221 222 224 226 225 226 225 223 222 224 228 229 225 226 237 242
127 205 201 86 103 107 133 200 354 44 203 254 124 226 258 54 267 193 222 242 253 261 255 234 230 215 233 243 241 237 239 239 250 255 249 241 225 225 225 225 214 205 203 205 209 205 205 202 200 203 204 204 207 203 207 206 207 209 211 211 213 211 212 216 213 208 192 193 210 213 212 217 214 208 207 209 208 214 216 216 221 223 223 224 225 227 226 226 226 227 226 226 225 220 223 228 228
187 186 152 163 206 228 258 114 198 174 232 264 285 274 279 207 236 120 235 227 243 242 248 276 260 229 233 240 248 249 251 264 260 251 246 236 221 221 219 220 221 218 214 213 213 206 211 213 212 208 207 206 204 203 205 209 208 209 210 210 208 209 209 210 207 203 193 205 214 212 213 218 212 207 211 212 212 216 215 217 219 224 223 223 223 225 224 228 230 236 231 233 229 228 235 236 221
5 72 168 164 122 233 170 204 139 144 250 356 276 86 248 191 223 168 242 230 233 257 252 231 239 232 225 229 227 235 235 233 242 250 246 236 229 221 216 219 218 216 214 214 206 196 207 210 204 212 218 211 205 204 199 205 206 205 209 203 207 202 202 204 204 199 205 213 215 209 215 215 215 205 212 211 215 215 213 217 217 221 225 225 224 225 222 223 224 227 234 237 231 225 227 225 222
145 163 181 215 214 316 134 208 170 159 214 228 263 287 256 230 182 178 212 238 247 224 235 229 237 234 232 230 224 220 220 225 230 238 246 246 244 237 231 229 235 246 232 214 202 203 209 199 210 208 204 205 203 203 192 208 190 205 200 203 204 197 203 203 204 203 210 216 213 211 215 215 202 217 207 215 217 216 214 216 216 218 221 222 223 227 220 222 231 235 236 237 232 224 229 230 214
180 179 191 187 179 177 183 222 63 154 170 227 182 249 259 269 195 189 197 210 228 242 246 254 219 232 231 232 236 221 214 228 222 225 234 245 248 256 261 262 254 229 225 211 216 203 197 201 210 201 204 207 199 199 200 198 194 198 200 204 205 202 204 199 202 201 212 212 213 213 211 203 215 219 203 216 216 215 215 215 217 219 220 222 224 227 222 220 224 228 237 232 227 225 224 227 223